UGUISU (44331 NORAD) Tracking and Keplerian Element Data

This shows tracking and keplerian element data for the satellite.

Feedback or suggestion? Click here.




ElementValue
Catalog44331
NameUGUISU
Epoch Orbit395
Epoch Day193.53712917
Epoch Year2019
RAAN235.3211
Inclination51.6404
Eccentricity0.0007125
Argument of Perigee170.0811
Mean Anonmoly190.032
Mean Motion15.52247369
Decay Rate5.085E-05
L11 44331U 98067QG 19193.53712917 .00005085 00000-0 89744-4 0 9997
L22 44331 51.6404 235.3211 0007125 170.0811 190.0320 15.52247369 3953

Live tracking and technical data element details for UGUISU (NORAD 44331). UGUISU can be tracked NOW for your location showing map with azimuth and elevation plus other details from your city location.

Track the satellite on the map from your city or location and see movement details for azimuth, elevation, latitude, longitude, range, height, and movement on the map or in text.







IsCatalogInMostPopularTable: catalog: 44331, numindb: 7
Update: records affected: 1



GetName: 44331 UGUISU

Hit Count: updated at: Mon, 15 Jul 2019 23:09:10 GMT